DIRECTV 11

Last updated on Tue Oct 28 2025 00:02:47 GMT+0000 (Coordinated Universal Time)

1 32729U 08013A 25300.45603125 -.00000115 00000+0 00000+0 0 9997 2 32729 0.0045 121.2159 0000367 342.1690 357.6911 1.00272174 43267
UTC large
Height (km)
Speed (km/s)
/
Latitude / Longitude
Inclination (degrees)
Orbital Period (minutes)
Azimuth
Elevation
Range (km)
Doppler Factor

Next 0 passes for location: London (51.5072 / 0.1276)

Sorry there are no passes over London.